Regional Weather Roundup
Issued by NWS

Home | Current Version | Previous Version | Graphics & Text | Print | Product List | Glossary On
Versions: 1 2 3 4 5 6 7 8 9 10 11 12 13 14 15 16 17 18 19 20 21 22 23 24 25 26 27 28 29 30 31 32 33 34 35 36 37 38 39 40 41 42 43 44 45 46 47 48 49 50
352
ASUS43 KLOT 260108
RWRIL

ILLINOIS REGIONAL WEATHER ROUNDUP
NATIONAL WEATHER SERVICE CHICAGO/ROMEOVILLE IL
700 PM CST SUN FEB 25 2018

NOTE: "FAIR" INDICATES FEW OR NO CLOUDS BELOW 12,000 FEET WITH NO
SIGNIFICANT WEATHER AND/OR OBSTRUCTIONS TO VISIBILITY.

* THESE STATIONS ARE NOT UNDER NWS QUALITY CONTROL. THEY ALSO MAY NOT
  REPORT WEATHER SUCH AS PRECIPITATION OR FOG.

ILZ001-002-007-009-015-016-024-260200-
NORTHWEST ILLINOIS

CITY           SKY/WX    TMP DP  RH WIND       PRES   REMARKS
MOLINE         FAIR      39  25  57 CALM      30.07R
STERLING*      FAIR      38  26  62 SW8       30.07R WCI  32
SAVANNA*       FAIR      37  26  63 W6        30.06R WCI  33
$$

ILZ003-004-008-010-011-017-018-260200-
NORTH CENTRAL ILLINOIS

CITY           SKY/WX    TMP DP  RH WIND       PRES   REMARKS
ROCKFORD       FAIR      37  24  59 W10       30.06R WCI  30
FREEPORT*      FAIR      35  26  69 W6        30.06R WCI  30
ROCHELLE*      FAIR      36  28  72 W10       30.06R WCI  28
DE KALB*       FAIR      38  26  63 SW10      30.06R WCI  30
PERU*          FAIR      39  26  60 SW9       30.09R WCI  33
$$

ILZ005-006-012>014-019>023-260200-
NORTHEAST ILLINOIS

CITY           SKY/WX    TMP DP  RH WIND       PRES   REMARKS
CHICAGO-OHARE  FAIR      41  25  53 SW12      30.04R
CHICAGO-MIDWAY FAIR      42  25  50 SW13      30.06R
AURORA         FAIR      37  29  72 SW7       30.07R WCI  32
LANSING*       FAIR      39  27  62 SW9       30.08S WCI  33
JOLIET*        FAIR      42  27  54 SW6       30.08S
WAUKEGAN       FAIR      40  24  53 SW12G21   30.01R
DUPAGE AIRPORT FAIR      39  28  64 SW12      30.05R WCI  32
KANKAKEE*      FAIR      38  28  67 SW7       30.10F WCI  33
WHEELING       FAIR      43  24  47 SW8       30.05R
MORRIS*        FAIR      39  27  61 SW8       30.07S WCI  34
ROMEOVILLE*    FAIR      39  28  63 SW8       30.07S WCI  33
NORTHERLY ISL    N/A     43  22  43 SW10        N/A
$$

LMZ740>746-260200-
SOUTHERN LAKE MICHIGAN

STATION/POSITION SKY/WX   TEMP    WIND        PRES    VSBY  WAVE
                          AIR SEA DIR/SP/G                  HT/PER
                          (F)     (DEG/KT/KT) (MB)    (MI)  (FT/S)
HARRISON CRIB              44     240/ 19/ 23   N/A
BURNHAM HARBOR             43     220/ 11/ 16   N/A
CALUMET HARBOR             42     220/ 11/ 14 1017.4R
BURNS HARBOR               42     230/ 12/ 17 1019.0R
MICHIGAN CITY              42     200/ 15/ 18   N/A
$$

ILZ025>027-034>036-040-047-049-050-058-095>099-260200-
WEST-CENTRAL ILLINOIS

CITY           SKY/WX    TMP DP  RH WIND       PRES   REMARKS
QUINCY         CLEAR     42  22  44 W3        30.10R
GALESBURG*     FAIR      37  30  75 S5        30.09S WCI  33
MACOMB*        CLEAR    N/A N/A N/A SW7       30.12R
JACKSONVILLE*  CLEAR     41  25  53 SW3       30.11S
PITTSFIELD*    CLEAR     44  24  46 CALM      30.12R
$$

ILZ028>032-037-038-041>044-048-051>054-059>061-260200-
CENTRAL ILLINOIS

CITY           SKY/WX    TMP DP  RH WIND       PRES   REMARKS
PONTIAC        FAIR      37  29  72 SW7       30.11S WCI  32
BLOOMINGTON    FAIR      38  26  62 SW9       30.11R WCI  31
DECATUR        FAIR      42  26  53 W6        30.12R
PEORIA         FAIR      40  24  53 SW6       30.10R
LACON*         FAIR      40  25  55 SW6       30.09R
LINCOLN*       FAIR      42  27  53 CALM      30.11S
SPRINGFIELD    FAIR      41  27  57 SW3       30.12R
TAYLORVILLE    FAIR      42  27  56 CALM      30.13R
$$

ILZ033-039-045-046-055>057-062-063-260200-
EAST-CENTRAL ILLINOIS

CITY           SKY/WX    TMP DP  RH WIND       PRES   REMARKS
CHAMPAIGN      FAIR      38  32  79 SW6       30.12R WCI  33
DANVILLE*      FAIR      36  28  73 W7        30.10R WCI  31
RANTOUL*       FAIR      39  32  75 W3        30.12R
MATTOON        FAIR      42  30  62 W3        30.12R
PARIS*         FAIR      38  32  79 W3        30.14S
$$

ILZ079-100>102-260200-
SOUTHWEST ILLINOIS

CITY           SKY/WX    TMP DP  RH WIND       PRES   REMARKS
BELLEVILLE     FAIR      45  26  48 NE3       30.12R
CAHOKIA*       FAIR      45  27  49 CALM      30.12R
SPARTA*        FAIR      44  36  73 NE5       30.13R
$$

ILZ064>066-069>071-074>076-080>082-084>086-088>090-092>094-260200-
SOUTH-CENTRAL ILLINOIS

CITY           SKY/WX    TMP DP  RH WIND       PRES   REMARKS
CARBONDALE     FAIR      45  32  60 NE5       30.13R
CAIRO*         FAIR      45  40  81 CALM      30.13R HAZE
EFFINGHAM*     FAIR      40  32  74 CALM      30.15S
MARION         MOCLDY    41  34  75 CALM      30.14R
MT. VERNON     FAIR      39  34  82 CALM      30.14R
CENTRALIA*     FAIR      42  35  75 CALM      30.13R
SALEM*         FAIR      44  30  59 CALM      30.14R
METROPOLIS*    FAIR      45  38  76 CALM      30.14R
$$

ILZ067-068-072-073-078-083-087-091-260200-
SOUTHEAST ILLINOIS

CITY           SKY/WX    TMP DP  RH WIND       PRES   REMARKS
LAWRENCEVILLE  FAIR      45  34  65 NW3       30.15R
FLORA*         FAIR      42  34  73 CALM      30.14S
FAIRFIELD*     FAIR      44  32  63 MISG      30.14R
HARRISBURG*    FAIR      45  33  65 N3        30.14R
ROBINSON*      FAIR      42  34  72 NW3       30.15S
CARMI*         FAIR      43  38  82 CALM      30.14R
$$

ABBREVIATIONS USED IN REMARKS
   TC - TEMPERATURE IN CELSIUS
  WCI - WIND CHILL INDEX
   HX - HEAT INDEX
  VSB - VISIBILITY
$$





USA.gov is the U.S. government's official web portal to all federal, state and local government web resources and services.